Year,Month,Day,Hour,Minute,Value (Times are PST for insolation in W/m^2)
2022,10,31,13,48,53.00
2022,10,31,13,49,57.60
2022,10,31,13,50,54.00
2022,10,31,13,51,53.20
2022,10,31,13,52,52.20
2022,10,31,13,53,54.00
2022,10,31,13,54,52.20
2022,10,31,13,55,49.60
2022,10,31,13,56,49.00
2022,10,31,13,57,46.20
2022,10,31,13,58,43.00
2022,10,31,13,59,38.10
2022,10,31,14,00,43.70
2022,10,31,14,01,46.50
2022,10,31,14,02,49.80
2022,10,31,14,03,50.40
2022,10,31,14,04,41.60
2022,10,31,14,05,41.60
2022,10,31,14,06,41.70
2022,10,31,14,07,34.70
2022,10,31,14,08,33.60
2022,10,31,14,09,35.70
2022,10,31,14,10,39.40
2022,10,31,14,11,45.00
2022,10,31,14,12,59.30
2022,10,31,14,13,62.70
2022,10,31,14,14,53.80
2022,10,31,14,15,71.10
2022,10,31,14,16,62.00
2022,10,31,14,17,57.90
2022,10,31,14,18,44.10
2022,10,31,14,19,38.00
2022,10,31,14,20,36.50
2022,10,31,14,21,37.90
2022,10,31,14,22,50.60
2022,10,31,14,23,44.40
2022,10,31,14,24,44.30
2022,10,31,14,25,48.60
2022,10,31,14,26,62.50
2022,10,31,14,27,74.90
2022,10,31,14,28,76.60
2022,10,31,14,29,71.50
2022,10,31,14,30,105.30
2022,10,31,14,31,114.30
2022,10,31,14,32,124.30
2022,10,31,14,33,77.90
2022,10,31,14,34,106.00
2022,10,31,14,35,91.10
2022,10,31,14,36,144.00
2022,10,31,14,37,120.00
2022,10,31,14,38,72.20
2022,10,31,14,39,64.00
2022,10,31,14,40,67.90
2022,10,31,14,41,90.90
2022,10,31,14,42,94.80
2022,10,31,14,43,111.60
2022,10,31,14,44,109.40
2022,10,31,14,45,102.30
2022,10,31,14,46,93.60
2022,10,31,14,47,85.60
2022,10,31,14,48,83.10
2022,10,31,14,49,55.10
2022,10,31,14,50,49.00
2022,10,31,14,51,45.60
2022,10,31,14,52,34.50
2022,10,31,14,53,32.40
2022,10,31,14,54,41.50
2022,10,31,14,55,35.10
2022,10,31,14,56,26.70
2022,10,31,14,57,23.30
2022,10,31,14,58,25.10
2022,10,31,14,59,26.90
2022,10,31,15,00,30.70
2022,10,31,15,01,32.40
2022,10,31,15,02,35.10
2022,10,31,15,03,40.20
2022,10,31,15,04,42.00
2022,10,31,15,05,40.30
2022,10,31,15,06,40.10
2022,10,31,15,07,42.50
2022,10,31,15,08,45.50
2022,10,31,15,09,43.30
2022,10,31,15,10,45.20
2022,10,31,15,11,56.10
2022,10,31,15,12,57.90
2022,10,31,15,13,52.10
2022,10,31,15,14,51.00
2022,10,31,15,15,64.50
2022,10,31,15,16,109.40
2022,10,31,15,17,111.00
2022,10,31,15,18,106.50
2022,10,31,15,19,89.50
2022,10,31,15,20,56.50
2022,10,31,15,21,50.00
2022,10,31,15,22,70.20
2022,10,31,15,23,118.50
2022,10,31,15,24,117.70
2022,10,31,15,25,107.60
2022,10,31,15,26,73.90
2022,10,31,15,27,57.80
2022,10,31,15,28,46.10
2022,10,31,15,29,40.70
2022,10,31,15,30,41.50
2022,10,31,15,31,42.00
2022,10,31,15,32,43.70
2022,10,31,15,33,42.90
2022,10,31,15,34,44.10
2022,10,31,15,35,34.30
2022,10,31,15,36,45.50
2022,10,31,15,37,56.80
2022,10,31,15,38,51.20
2022,10,31,15,39,47.40
2022,10,31,15,40,48.80
2022,10,31,15,41,53.30
2022,10,31,15,42,56.90
2022,10,31,15,43,58.70
2022,10,31,15,44,55.10
2022,10,31,15,45,46.20
2022,10,31,15,46,35.20
2022,10,31,15,47,32.30
2022,10,31,15,48,32.00
2022,10,31,15,49,37.00
2022,10,31,15,50,41.60
2022,10,31,15,51,37.40
2022,10,31,15,52,30.50
2022,10,31,15,53,26.90
2022,10,31,15,54,28.00
2022,10,31,15,55,29.40
2022,10,31,15,56,35.40
2022,10,31,15,57,32.70
2022,10,31,15,58,35.50
2022,10,31,15,59,40.70
2022,10,31,16,00,32.90
2022,10,31,16,01,27.10
2022,10,31,16,02,27.00
2022,10,31,16,03,33.50
2022,10,31,16,04,33.40
2022,10,31,16,05,26.30
2022,10,31,16,06,27.80
2022,10,31,16,07,29.70
2022,10,31,16,08,27.50
2022,10,31,16,09,26.60
2022,10,31,16,10,28.00
2022,10,31,16,11,28.00
2022,10,31,16,12,26.70
2022,10,31,16,13,23.70
2022,10,31,16,14,23.00
2022,10,31,16,15,23.10
2022,10,31,16,16,26.70
2022,10,31,16,17,30.50
2022,10,31,16,18,32.40
2022,10,31,16,19,36.00
2022,10,31,16,20,37.80
2022,10,31,16,21,38.40
2022,10,31,16,22,35.90
2022,10,31,16,23,32.40
2022,10,31,16,24,25.00
2022,10,31,16,25,26.10
2022,10,31,16,26,32.20
2022,10,31,16,27,39.00
2022,10,31,16,28,39.40
2022,10,31,16,29,40.20
2022,10,31,16,30,40.50
2022,10,31,16,31,39.20
2022,10,31,16,32,35.20
2022,10,31,16,33,35.70
2022,10,31,16,34,39.70
2022,10,31,16,35,34.00
2022,10,31,16,36,25.50
2022,10,31,16,37,25.00
2022,10,31,16,38,23.60
2022,10,31,16,39,23.00
2022,10,31,16,40,21.30
2022,10,31,16,41,20.80
2022,10,31,16,42,19.40
2022,10,31,16,43,21.60
2022,10,31,16,44,23.00
2022,10,31,16,45,23.00
2022,10,31,16,46,23.00
2022,10,31,16,47,23.00
2022,10,31,16,48,23.00
2022,10,31,16,49,23.00
2022,10,31,16,50,22.70
2022,10,31,16,51,20.50
2022,10,31,16,52,18.70
2022,10,31,16,53,17.10
2022,10,31,16,54,16.00
2022,10,31,16,55,14.70
2022,10,31,16,56,15.50
2022,10,31,16,57,16.00
2022,10,31,16,58,16.00
2022,10,31,16,59,16.00
2022,10,31,17,00,16.00
2022,10,31,17,01,15.20
2022,10,31,17,02,14.00
2022,10,31,17,03,14.00
2022,10,31,17,04,14.00
2022,10,31,17,05,14.00
2022,10,31,17,06,14.00
2022,10,31,17,07,12.00
2022,10,31,17,08,12.00
2022,10,31,17,09,11.70
2022,10,31,17,10,11.00
2022,10,31,17,11,11.00
2022,10,31,17,12,9.70
2022,10,31,17,13,9.00
2022,10,31,17,14,9.00
2022,10,31,17,15,10.90
2022,10,31,17,16,11.00
2022,10,31,17,17,11.00
2022,10,31,17,18,10.30
2022,10,31,17,19,9.00
2022,10,31,17,20,9.00
2022,10,31,17,21,7.60
2022,10,31,17,22,7.00
2022,10,31,17,23,7.00
2022,10,31,17,24,7.00
2022,10,31,17,25,6.60
2022,10,31,17,26,5.00
2022,10,31,17,27,5.00
2022,10,31,17,28,5.00
2022,10,31,17,29,5.00
2022,10,31,17,30,5.00
2022,10,31,17,31,5.00
2022,10,31,17,32,5.00
2022,10,31,17,33,5.00
2022,10,31,17,34,3.90
2022,10,31,17,35,0.00
2022,10,31,17,36,0.00
2022,10,31,17,37,0.00
2022,10,31,17,38,0.00
2022,10,31,17,39,0.00
2022,10,31,17,40,0.00
2022,10,31,17,41,0.00
2022,10,31,17,42,0.00
2022,10,31,17,43,0.00
2022,10,31,17,44,0.00
2022,10,31,17,45,0.00
2022,10,31,17,46,0.00
2022,10,31,17,47,0.00
2022,10,31,17,48,0.00
2022,10,31,17,49,0.00
2022,10,31,17,50,0.00
2022,10,31,17,51,0.00
2022,10,31,17,52,0.00
2022,10,31,17,53,0.00
2022,10,31,17,54,0.00
2022,10,31,17,55,0.00
2022,10,31,17,56,0.00
2022,10,31,17,57,0.00
2022,10,31,17,58,0.00
2022,10,31,17,59,0.00
2022,10,31,18,00,0.00
2022,10,31,18,01,0.00
2022,10,31,18,02,0.00
2022,10,31,18,03,0.00
2022,10,31,18,04,0.00
2022,10,31,18,05,0.00
2022,10,31,18,06,0.00
2022,10,31,18,07,0.00
2022,10,31,18,08,0.00
2022,10,31,18,09,0.00
2022,10,31,18,10,0.00
2022,10,31,18,11,0.00
2022,10,31,18,12,0.00
2022,10,31,18,13,0.00
2022,10,31,18,14,0.00
2022,10,31,18,15,0.00
2022,10,31,18,16,0.00
2022,10,31,18,17,0.00
2022,10,31,18,18,0.00
2022,10,31,18,19,0.00
2022,10,31,18,20,0.00
2022,10,31,18,21,0.00
2022,10,31,18,22,0.00
2022,10,31,18,23,0.00
2022,10,31,18,24,0.00
2022,10,31,18,25,0.00
2022,10,31,18,26,0.00
2022,10,31,18,27,0.00
2022,10,31,18,28,0.00
2022,10,31,18,29,0.00
2022,10,31,18,30,0.00
2022,10,31,18,31,0.00
2022,10,31,18,32,0.00
2022,10,31,18,33,0.00
2022,10,31,18,34,0.00
2022,10,31,18,35,0.00
2022,10,31,18,36,0.00
2022,10,31,18,37,0.00
2022,10,31,18,38,0.00
2022,10,31,18,39,0.00
2022,10,31,18,40,0.00
2022,10,31,18,41,0.00
2022,10,31,18,42,0.00
2022,10,31,18,43,0.00
2022,10,31,18,44,0.00
2022,10,31,18,45,0.00
2022,10,31,18,46,0.00
2022,10,31,18,47,0.00
2022,10,31,18,48,0.00
2022,10,31,18,49,0.00
2022,10,31,18,50,0.00
2022,10,31,18,51,0.00
2022,10,31,18,52,0.00
2022,10,31,18,53,0.00
2022,10,31,18,54,0.00
2022,10,31,18,55,0.00
2022,10,31,18,56,0.00
2022,10,31,18,57,0.00
2022,10,31,18,58,0.00
2022,10,31,18,59,0.00
2022,10,31,19,00,0.00
2022,10,31,19,01,0.00
2022,10,31,19,02,0.00
2022,10,31,19,03,0.00
2022,10,31,19,04,0.00
2022,10,31,19,05,0.00
2022,10,31,19,06,0.00
2022,10,31,19,07,0.00
2022,10,31,19,08,0.00
2022,10,31,19,09,0.00
2022,10,31,19,10,0.00
2022,10,31,19,11,0.00
2022,10,31,19,12,0.00
2022,10,31,19,13,0.00
2022,10,31,19,14,0.00
2022,10,31,19,15,0.00
2022,10,31,19,16,0.00
2022,10,31,19,17,0.00
2022,10,31,19,18,0.00
2022,10,31,19,19,0.00
2022,10,31,19,20,0.00
2022,10,31,19,21,0.00
2022,10,31,19,22,0.00
2022,10,31,19,23,0.00
2022,10,31,19,24,0.00
2022,10,31,19,25,0.00
2022,10,31,19,26,0.00
2022,10,31,19,27,0.00
2022,10,31,19,28,0.00
2022,10,31,19,29,0.00
2022,10,31,19,30,0.00
2022,10,31,19,31,0.00
2022,10,31,19,32,0.00
2022,10,31,19,33,0.00
2022,10,31,19,34,0.00
2022,10,31,19,35,0.00
2022,10,31,19,36,0.00
2022,10,31,19,37,0.00
2022,10,31,19,38,0.00
2022,10,31,19,39,0.00
2022,10,31,19,40,0.00
2022,10,31,19,41,0.00
2022,10,31,19,42,0.00
2022,10,31,19,43,0.00
2022,10,31,19,44,0.00
2022,10,31,19,45,0.00
2022,10,31,19,46,0.00
2022,10,31,19,47,0.00
2022,10,31,19,48,0.00
2022,10,31,19,49,0.00
2022,10,31,19,50,0.00
2022,10,31,19,51,0.00
2022,10,31,19,52,0.00
2022,10,31,19,53,0.00
2022,10,31,19,54,0.00
2022,10,31,19,55,0.00
2022,10,31,19,56,0.00
2022,10,31,19,57,0.00
2022,10,31,19,58,0.00
2022,10,31,19,59,0.00
2022,10,31,20,00,0.00
2022,10,31,20,01,0.00
2022,10,31,20,02,0.00
2022,10,31,20,03,0.00
2022,10,31,20,04,0.00
2022,10,31,20,05,0.00
2022,10,31,20,06,0.00
2022,10,31,20,07,0.00
2022,10,31,20,08,0.00
2022,10,31,20,09,0.00
2022,10,31,20,10,0.00
2022,10,31,20,11,0.00
2022,10,31,20,12,0.00
2022,10,31,20,13,0.00
2022,10,31,20,14,0.00
2022,10,31,20,15,0.00
2022,10,31,20,16,0.00
2022,10,31,20,17,0.00
2022,10,31,20,18,0.00
2022,10,31,20,19,0.00
2022,10,31,20,20,0.00
2022,10,31,20,21,0.00
2022,10,31,20,22,0.00
2022,10,31,20,23,0.00
2022,10,31,20,24,0.00
2022,10,31,20,25,0.00
2022,10,31,20,26,0.00
2022,10,31,20,27,0.00
2022,10,31,20,28,0.00
2022,10,31,20,29,0.00
2022,10,31,20,30,0.00
2022,10,31,20,31,0.00
2022,10,31,20,32,0.00
2022,10,31,20,33,0.00
2022,10,31,20,34,0.00
2022,10,31,20,35,0.00
2022,10,31,20,36,0.00
2022,10,31,20,37,0.00
2022,10,31,20,38,0.00
2022,10,31,20,39,0.00
2022,10,31,20,40,0.00
2022,10,31,20,41,0.00
2022,10,31,20,42,0.00
2022,10,31,20,43,0.00
2022,10,31,20,44,0.00
2022,10,31,20,45,0.00
2022,10,31,20,46,0.00
2022,10,31,20,47,0.00
2022,10,31,20,48,0.00
2022,10,31,20,49,0.00
2022,10,31,20,50,0.00
2022,10,31,20,51,0.00
2022,10,31,20,52,0.00
2022,10,31,20,53,0.00
2022,10,31,20,54,0.00
2022,10,31,20,55,0.00
2022,10,31,20,56,0.00
2022,10,31,20,57,0.00
2022,10,31,20,58,0.00
2022,10,31,20,59,0.00
2022,10,31,21,00,0.00
2022,10,31,21,01,0.00
2022,10,31,21,02,0.00
2022,10,31,21,03,0.00
2022,10,31,21,04,0.00
2022,10,31,21,05,0.00
2022,10,31,21,06,0.00
2022,10,31,21,07,0.00
2022,10,31,21,08,0.00
2022,10,31,21,09,0.00
2022,10,31,21,10,0.00
2022,10,31,21,11,0.00
2022,10,31,21,12,0.00
2022,10,31,21,13,0.00
2022,10,31,21,14,0.00
2022,10,31,21,15,0.00
2022,10,31,21,16,0.00
2022,10,31,21,17,0.00
2022,10,31,21,18,0.00
2022,10,31,21,19,0.00
2022,10,31,21,20,0.00
2022,10,31,21,21,0.00
2022,10,31,21,22,0.00
2022,10,31,21,23,0.00
2022,10,31,21,24,0.00
2022,10,31,21,25,0.00
2022,10,31,21,26,0.00
2022,10,31,21,27,0.00
2022,10,31,21,28,0.00
2022,10,31,21,29,0.00
2022,10,31,21,30,0.00
2022,10,31,21,31,0.00
2022,10,31,21,32,0.00
2022,10,31,21,33,0.00
2022,10,31,21,34,0.00
2022,10,31,21,35,0.00
2022,10,31,21,36,0.00
2022,10,31,21,37,0.00
2022,10,31,21,38,0.00
2022,10,31,21,39,0.00
2022,10,31,21,40,0.00
2022,10,31,21,41,0.00
2022,10,31,21,42,0.00
2022,10,31,21,43,0.00
2022,10,31,21,44,0.00
2022,10,31,21,45,0.00
2022,10,31,21,46,0.00
2022,10,31,21,47,0.00
2022,10,31,21,48,0.00
2022,10,31,21,49,0.00
2022,10,31,21,50,0.00
2022,10,31,21,51,0.00
2022,10,31,21,52,0.00
2022,10,31,21,53,0.00
2022,10,31,21,54,0.00
2022,10,31,21,55,0.00
2022,10,31,21,56,0.00
2022,10,31,21,57,0.00
2022,10,31,21,58,0.00
2022,10,31,21,59,0.00
2022,10,31,22,00,0.00
2022,10,31,22,01,0.00
2022,10,31,22,02,0.00
2022,10,31,22,03,0.00
2022,10,31,22,04,0.00
2022,10,31,22,05,0.00
2022,10,31,22,06,0.00
2022,10,31,22,07,0.00
2022,10,31,22,08,0.00
2022,10,31,22,09,0.00
2022,10,31,22,10,0.00
2022,10,31,22,11,0.00
2022,10,31,22,12,0.00
2022,10,31,22,13,0.00
2022,10,31,22,14,0.00
2022,10,31,22,15,0.00
2022,10,31,22,16,0.00
2022,10,31,22,17,0.00
2022,10,31,22,18,0.00
2022,10,31,22,19,0.00
2022,10,31,22,20,0.00
2022,10,31,22,21,0.00
2022,10,31,22,22,0.00
2022,10,31,22,23,0.00
2022,10,31,22,24,0.00
2022,10,31,22,25,0.00
2022,10,31,22,26,0.00
2022,10,31,22,27,0.00
2022,10,31,22,28,0.00
2022,10,31,22,29,0.00
2022,10,31,22,30,0.00
2022,10,31,22,31,0.00
2022,10,31,22,32,0.00
2022,10,31,22,33,0.00
2022,10,31,22,34,0.00
2022,10,31,22,35,0.00
2022,10,31,22,36,0.00
2022,10,31,22,37,0.00
2022,10,31,22,38,0.00
2022,10,31,22,39,0.00
2022,10,31,22,40,0.00
2022,10,31,22,41,0.00
2022,10,31,22,42,0.00
2022,10,31,22,43,0.00
2022,10,31,22,44,0.00
2022,10,31,22,45,0.00
2022,10,31,22,46,0.00
2022,10,31,22,47,0.00
2022,10,31,22,48,0.00
2022,10,31,22,49,0.00
2022,10,31,22,50,0.00
2022,10,31,22,51,0.00
2022,10,31,22,52,0.00
2022,10,31,22,53,0.00
2022,10,31,22,54,0.00
2022,10,31,22,55,0.00
2022,10,31,22,56,0.00
2022,10,31,22,57,0.00
2022,10,31,22,58,0.00
2022,10,31,22,59,0.00
2022,10,31,23,00,0.00
2022,10,31,23,01,0.00
2022,10,31,23,02,0.00
2022,10,31,23,03,0.00
2022,10,31,23,04,0.00
2022,10,31,23,05,0.00
2022,10,31,23,06,0.00
2022,10,31,23,07,0.00
2022,10,31,23,08,0.00
2022,10,31,23,09,0.00
2022,10,31,23,10,0.00
2022,10,31,23,11,0.00
2022,10,31,23,12,0.00
2022,10,31,23,13,0.00
2022,10,31,23,14,0.00
2022,10,31,23,15,0.00
2022,10,31,23,16,0.00
2022,10,31,23,17,0.00
2022,10,31,23,18,0.00
2022,10,31,23,19,0.00
2022,10,31,23,20,0.00
2022,10,31,23,21,0.00
2022,10,31,23,22,0.00
2022,10,31,23,23,0.00
2022,10,31,23,24,0.00
2022,10,31,23,25,0.00
2022,10,31,23,26,0.00
2022,10,31,23,27,0.00
2022,10,31,23,28,0.00
2022,10,31,23,29,0.00
2022,10,31,23,30,0.00
2022,10,31,23,31,0.00
2022,10,31,23,32,0.00
2022,10,31,23,33,0.00
2022,10,31,23,34,0.00
2022,10,31,23,35,0.00
2022,10,31,23,36,0.00
2022,10,31,23,37,0.00
2022,10,31,23,38,0.00
2022,10,31,23,39,0.00
2022,10,31,23,40,0.00
2022,10,31,23,41,0.00
2022,10,31,23,42,0.00
2022,10,31,23,43,0.00
2022,10,31,23,44,0.00
2022,10,31,23,45,0.00
2022,10,31,23,46,0.00
2022,10,31,23,47,0.00
2022,10,31,23,48,0.00
2022,10,31,23,49,0.00
2022,10,31,23,50,0.00
2022,10,31,23,51,0.00
2022,10,31,23,52,0.00
2022,10,31,23,53,0.00
2022,10,31,23,54,0.00
2022,10,31,23,55,0.00
2022,10,31,23,56,0.00
2022,10,31,23,57,0.00
2022,10,31,23,58,0.00
2022,10,31,23,59,0.00
